Weather History for Ballenas Island, BC

Change the Weather History Date:

Saturday, March 16, 2013

  Actual Average Record
Temperature  
Mean Temperature 44 °F -  
Max Temperature 47 °F - - ()
Min Temperature 40 °F - - ()
Degree Days  
Heating Degree Days 22    
Moisture  
Dew Point 40 °F    
Average Humidity 84    
Maximum Humidity 95    
Minimum Humidity 61    
Precipitation  
Precipitation 0.08 in - - ()
Sea Level Pressure  
Sea Level Pressure 29.89 in    
Wind  
Wind Speed 10 mph ()    
Max Wind Speed 29 mph    
Max Gust Speed 36 mph    
T = Trace of Precipitation, MM = Missing Value Source: Averaged Metar Reports

Daily Weather History Graph

Daily Weather History Graph

Search for Another Location

Airport:

Trip Planner

Search our weather history database for the weather conditions in past years. The results will help you decide how hot, cold, wet, or windy it might be!

Date:

Astronomy

Mar. 16, 2013 Rise Set
Actual Time 7:27 AM PDT 7:23 PM PDT
Civil Twilight 6:55 AM PDT 7:55 PM PDT
Nautical Twilight 6:18 AM PDT 8:33 PM PDT
Astronomical Twilight 5:40 AM PDT 9:11 PM PDT
Moon 9:33 AM PDT (3/16) 12:08 AM PDT (3/16)
Length of Visible Light 13h 00m
Length of Day
11h 56m
Waxing Crescent, 24% of the Moon is Illuminated
Mar 16
Waxing Crescent
Mar 19
First Quarter
Mar 27
Full
Apr 2
Last Quarter
Apr 10
New

Hourly Weather History & Observations

Time (PDT) Temp. Windchill Dew Point Humidity Pressure Visibility Wind Dir Wind Speed Gust Speed Precip Events Conditions
12:00 AM 46.0 °F 41.9 °F 44.8 °F 95% 30.06 in - ESE 8.1 mph - N/A   Unknown
1:00 AM 45.7 °F 41.0 °F 44.4 °F 95% 30.04 in - SE 9.2 mph - N/A   Unknown
2:00 AM 45.1 °F 40.8 °F 43.9 °F 95% 30.03 in - SE 8.1 mph - N/A   Unknown
3:00 AM 45.0 °F 43.5 °F 43.7 °F 95% 30.01 in - ESE 3.5 mph - N/A   Unknown
5:00 AM 45 °F - 44 °F 93% 29.97 in - ESE 10.4 mph - -  
5:00 AM 45.3 °F 40.1 °F 43.7 °F 94% 29.97 in - ESE 10.4 mph - N/A   Unknown
6:00 AM 45.5 °F 40.3 °F 43.7 °F 93% 29.96 in - ESE 10.4 mph - N/A   Unknown
7:00 AM 45.3 °F 39.3 °F 43.5 °F 93% 29.93 in - ESE 12.7 mph - N/A   Unknown
8:00 AM 45.1 °F 39.5 °F 43.0 °F 92% 29.91 in - ESE 11.5 mph - N/A   Unknown
9:00 AM 45.3 °F 41.1 °F 42.4 °F 90% 29.90 in - ESE 8.1 mph - N/A   Unknown
10:00 AM 46.0 °F 41.4 °F 42.4 °F 87% 29.88 in - ESE 9.2 mph - N/A   Unknown
11:00 AM 47 °F - 42 °F 79% 29.87 in - ESE 5.8 mph - -  
11:00 AM 47.5 °F - 42.4 °F 83% 29.87 in - ESE 5.8 mph - N/A   Unknown
12:00 PM 47.8 °F - 42.4 °F 82% 29.86 in - West 3.5 mph - N/A   Unknown
1:00 PM 46.9 °F - 43.0 °F 86% 29.85 in - NNW 3.5 mph - 0.02 in   Unknown
2:00 PM 45.9 °F 43.6 °F 39.6 °F 79% 29.83 in - NW 4.6 mph - 0.04 in   Unknown
3:00 PM 46.8 °F - 35.6 °F 65% 29.80 in - SW 18.4 mph - 0.01 in   Unknown
4:00 PM 46.6 °F - 33.6 °F 61% 29.78 in - West 25.3 mph - N/A   Unknown
5:00 PM 42 °F - 38 °F 81% 29.80 in - WNW 28.8 mph - -  
5:00 PM 42.3 °F 31.8 °F 38.1 °F 85% 29.80 in - WNW 28.8 mph 35.7 mph N/A   Unknown
6:00 PM 40.3 °F 30.4 °F 36.7 °F 87% 29.83 in - WNW 21.9 mph - 0.03 in   Unknown
7:00 PM 40.3 °F 30.7 °F 36.7 °F 87% 29.83 in - NW 20.7 mph - 0.05 in   Unknown
8:00 PM 41.4 °F 33.3 °F 36.5 °F 83% 29.83 in - NW 16.1 mph - N/A   Unknown
9:00 PM 41.5 °F 35.4 °F 36.9 °F 83% 29.85 in - West 10.4 mph - N/A   Unknown
10:00 PM 43.2 °F 34.2 °F 35.4 °F 74% 29.86 in - West 21.9 mph - N/A   Unknown
11:00 PM 43 °F - 35 °F 66% 29.87 in - WNW 20.7 mph - -  
11:00 PM 43.3 °F 34.7 °F 35.4 °F 74% 29.87 in - WNW 20.7 mph - N/A   Unknown